TimeEST,TemperatureF,Dew PointF,Humidity,Sea Level PressureIn,VisibilityMPH,Wind Direction,Wind SpeedMPH,Gust SpeedMPH,PrecipitationIn,Events,Conditions,WindDirDegrees,DateUTC
12:53 AM,28.9,24.1,82,30.35,10.0,South,5.8,-,N/A,,Clear,190,2013-01-08 05:53:00
1:53 AM,30.0,25.0,82,30.33,10.0,South,5.8,-,N/A,,Clear,170,2013-01-08 06:53:00
2:53 AM,30.0,26.1,85,30.32,9.0,SSW,4.6,-,N/A,,Clear,200,2013-01-08 07:53:00
3:53 AM,30.0,25.0,82,30.30,10.0,SSW,4.6,-,N/A,,Clear,210,2013-01-08 08:53:00
4:53 AM,30.0,24.1,79,30.29,10.0,SSW,5.8,-,N/A,,Clear,210,2013-01-08 09:53:00
5:53 AM,33.1,25.0,72,30.29,10.0,SW,9.2,-,N/A,,Clear,220,2013-01-08 10:53:00
6:53 AM,33.1,25.0,72,30.29,10.0,SW,11.5,-,N/A,,Clear,220,2013-01-08 11:53:00
7:53 AM,34.0,25.0,70,30.31,10.0,SW,11.5,-,N/A,,Scattered Clouds,230,2013-01-08 12:53:00
8:53 AM,37.0,26.1,65,30.31,9.0,WSW,18.4,23.0,N/A,,Clear,240,2013-01-08 13:53:00
9:53 AM,39.0,26.1,60,30.31,10.0,WSW,13.8,23.0,N/A,,Mostly Cloudy,240,2013-01-08 14:53:00
10:53 AM,41.0,26.1,55,30.29,10.0,SW,19.6,26.5,N/A,,Clear,230,2013-01-08 15:53:00
11:53 AM,44.1,26.1,49,30.26,10.0,WSW,15.0,23.0,N/A,,Clear,240,2013-01-08 16:53:00
12:53 PM,45.0,26.1,48,30.25,10.0,SW,16.1,-,N/A,,Mostly Cloudy,230,2013-01-08 17:53:00
1:53 PM,46.4,24.8,43,30.24,10.0,West,9.2,-,N/A,,Mostly Cloudy,260,2013-01-08 18:53:00
2:53 PM,45.0,25.0,46,30.26,10.0,WSW,16.1,-,N/A,,Clear,240,2013-01-08 19:53:00
3:53 PM,45.0,25.0,46,30.27,10.0,WSW,9.2,-,N/A,,Clear,240,2013-01-08 20:53:00
4:53 PM,39.0,25.0,57,30.27,10.0,SW,6.9,-,N/A,,Clear,230,2013-01-08 21:53:00
5:53 PM,39.9,24.1,53,30.29,10.0,WSW,3.5,-,N/A,,Clear,240,2013-01-08 22:53:00
6:53 PM,39.9,25.0,55,30.31,10.0,Calm,Calm,-,N/A,,Clear,0,2013-01-08 23:53:00
7:53 PM,36.0,24.1,62,30.32,10.0,WSW,3.5,-,N/A,,Clear,240,2013-01-09 00:53:00
8:53 PM,37.0,25.0,62,30.33,10.0,West,3.5,-,N/A,,Clear,270,2013-01-09 01:53:00
9:53 PM,37.0,26.1,65,30.33,10.0,WNW,5.8,-,N/A,,Clear,290,2013-01-09 02:53:00
10:53 PM,36.0,25.0,64,30.33,10.0,WNW,4.6,-,N/A,,Clear,300,2013-01-09 03:53:00
11:53 PM,34.0,25.0,70,30.34,10.0,NNW,4.6,-,N/A,,Clear,330,2013-01-09 04:53:00